Simultaneous Nadir Overpasses (SNOs) Predictions

Prediction of SNOs between GOES-16 and AQUA Satellite Orbit:

Table of predicted SNOs for the next 14.0 days since TLE Epoch: 4/6/2024
Index Date Time (GOES-16) GOES-16 Lat,Lon AQUA Lat,Lon Distance(km) Time Diff (sec)
1 04/07/2024 06:55:30 -0.01, -75.21 -0.48, -72.89 263.32 80
2 04/07/2024 19:15:56 0.01, -75.22 -0.55, -77.84 298.37 80
3 04/09/2024 19:02:38 0.01, -75.23 0.28, -73.94 147.23 80
4 04/10/2024 07:22:54 -0.01, -75.24 0.76, -78.85 410.42 80
5 04/12/2024 07:04:16 -0.01, -75.26 -0.05, -74.94 35.88 80
6 04/14/2024 06:48:17 -0.01, -75.28 -0.89, -71.03 482.74 80
7 04/14/2024 19:08:41 0.00, -75.29 -0.16, -75.97 78.43 80
8 04/16/2024 18:55:21 0.00, -75.32 0.67, -72.06 369.88 80
9 04/17/2024 07:15:38 0.00, -75.33 0.35, -76.97 187.00 80
10 04/19/2024 06:56:58 0.00, -75.37 -0.52, -73.07 262.55 80
11 04/19/2024 19:17:22 -0.00, -75.38 -0.56, -78.00 298.14 80
